Rockport, TX

7:01 AM CDT on October 24, 2017 (GMT -0500)
Aransas County

Weather History for KRKP - April, 2013

Change the Weather History Date:

Saturday, April 6, 2013

  Actual Average Record
Temperature  
Mean Temperature 72 °F -  
Max Temperature 77 °F 74 °F 86 °F (2005)
Min Temperature 66 °F 59 °F 45 °F (1970)
Cooling Degree Days 6    
Growing Degree Days 22 (Base 50)    
Moisture  
Dew Point 61 °F    
Average Humidity 69    
Maximum Humidity 87    
Minimum Humidity 54    
Precipitation  
Precipitation 0.00 in - - ()
Sea Level Pressure  
Sea Level Pressure 29.99 in    
Wind  
Wind Speed 13 mph (SSE)    
Max Wind Speed 18 mph    
Max Gust Speed 29 mph    
Visibility 10 miles    
Events      
Averages and records for this station are not official NWS values.
T = Trace of Precipitation, MM = Missing Value Source: NWS Daily Summary

Daily Weather History Graph

Daily Weather History Graph

Search for Another Location

Airport or City:

Trip Planner

Search our weather history database for the weather conditions in past years. The results will help you decide how hot, cold, wet, or windy it might be!

Date:

Astronomy

Apr. 06, 2013 Rise Set
Actual Time 7:12 AM CDT 7:48 PM CDT
Civil Twilight 6:48 AM CDT 8:12 PM CDT
Nautical Twilight 6:20 AM CDT 8:40 PM CDT
Astronomical Twilight 5:52 AM CDT 9:08 PM CDT
Moon 4:38 AM CDT (4/6) 4:34 PM CDT (4/6)
Length of Visible Light 13h 23m
Length of Day
12h 36m
Waning Crescent, 15% of the Moon is Illuminated
Apr 6
Waning Crescent
Apr 10
New
Apr 18
First Quarter
Apr 25
Full
May 2
Last Quarter

Hourly Weather History & Observations

Time (CDT) Temp. Dew Point Humidity Pressure Visibility Wind Dir Wind Speed Gust Speed Precip Events Conditions
7:53 AM 66.0 °F 59.0 °F 78% 30.04 in 10.0 mi SSE 10.4 mph - N/A   Clear
8:53 AM 66.9 °F 60.1 °F 79% 30.04 in 10.0 mi SE 17.3 mph 20.7 mph N/A   Partly Cloudy
9:50 AM 69.8 °F 59.0 °F 68% 30.04 in 10.0 mi SSE 13.8 mph 20.7 mph N/A   Mostly Cloudy
9:53 AM 69.1 °F 59.0 °F 70% 30.05 in 10.0 mi SSE 16.1 mph 20.7 mph N/A   Mostly Cloudy
10:06 AM 71.6 °F 60.8 °F 69% 30.05 in 10.0 mi SE 15.0 mph - N/A   Scattered Clouds
10:53 AM 73.0 °F 60.1 °F 64% 30.06 in 10.0 mi SSE 16.1 mph 25.3 mph N/A   Scattered Clouds
11:53 AM 75.0 °F 60.1 °F 60% 30.05 in 10.0 mi SSE 10.4 mph 21.9 mph N/A   Partly Cloudy
12:17 PM 73.4 °F 60.8 °F 65% 30.05 in 10.0 mi SSE 11.5 mph 20.7 mph N/A   Mostly Cloudy
12:53 PM 73.9 °F 60.1 °F 62% 30.04 in 10.0 mi South 12.7 mph 23.0 mph N/A   Mostly Cloudy
1:53 PM 77.0 °F 59.0 °F 54% 30.00 in 10.0 mi SSE 18.4 mph 28.8 mph N/A   Clear
2:53 PM 75.9 °F 60.1 °F 58% 29.98 in 10.0 mi South 15.0 mph 24.2 mph N/A   Clear
3:53 PM 75.9 °F 59.0 °F 56% 29.96 in 10.0 mi SSE 15.0 mph 24.2 mph N/A   Clear
4:53 PM 75.0 °F 60.1 °F 60% 29.94 in 10.0 mi SSE 11.5 mph 20.7 mph N/A   Clear
5:53 PM 73.0 °F 61.0 °F 66% 29.92 in 10.0 mi SSE 13.8 mph 21.9 mph N/A   Clear
6:53 PM 71.1 °F 61.0 °F 70% 29.93 in 10.0 mi SSE 17.3 mph 21.9 mph N/A   Clear
7:53 PM 69.1 °F 62.1 °F 78% 29.92 in 10.0 mi SSE 12.7 mph - N/A   Clear
8:53 PM 69.1 °F 62.1 °F 78% 29.93 in 10.0 mi SSE 11.5 mph - N/A   Clear
9:53 PM 68.0 °F 62.1 °F 81% 29.95 in 10.0 mi SSE 9.2 mph - N/A   Clear
10:53 PM 68.0 °F 63.0 °F 84% 29.95 in 10.0 mi SE 10.4 mph - N/A   Clear
11:53 PM 66.9 °F 63.0 °F 87% 29.95 in 10.0 mi SSE 8.1 mph - N/A   Clear